AirNav  
 
 681 users online  

S68 Orofino Municipal Airport
Orofino, Idaho, USA

GOING TO OROFINO?


FAA INFORMATION EFFECTIVE 22 APRIL 2021

Location

FAA Identifier: S68
Lat/Long: 46-29-31.2760N 116-16-31.4380W
46-29.521267N 116-16.523967W
46.4920211,-116.2753994
(estimated)
Elevation: 1004.7 ft. / 306.2 m (surveyed)
Variation: 18E (1985)
From city: 1 mile NW of OROFINO, ID
Time zone: UTC -7 (UTC -8 during Standard Time)
Zip code: 83544

Airport Operations

Airport use: Open to the public
Activation date: 04/1940
Control tower: no
ARTCC: SEATTLE CENTER
FSS: BOISE FLIGHT SERVICE STATION
NOTAMs facility: BOI (NOTAM-D service available)
Attendance: UNATNDD
Wind indicator: lighted
Segmented circle: no
Lights: ACTVT RY 09/27 MIRL - CTAF.

Airport Communications

CTAF/UNICOM: 122.8

Nearby radio navigation aids

VOR radial/distance  VOR name  Freq  Var
MQGr055/25.4NEZ PERCE VOR/DME108.2020E

Airport Services

Fuel available: 100LL
Parking: tiedowns
Airframe service: NONE
Powerplant service: NONE
Bottled oxygen: NONE
Bulk oxygen: NONE

Runway Information

Runway 9/27

Dimensions: 2520 x 60 ft. / 768 x 18 m
Surface: asphalt, in good condition
Weight bearing capacity: 
Single wheel: 17.0
Runway edge lights: medium intensity
RUNWAY 9  RUNWAY 27
Latitude: 46-29.604263N46-29.438260N
Longitude: 116-16.798980W116-16.248955W
Elevation: 1000.0 ft.1004.7 ft.
Traffic pattern: rightleft
Displaced threshold: 100 ft.no
Markings: basic, in good conditionbasic, in good condition
Touchdown point: yes, no lightsyes, no lights
Obstructions: 60 ft. tree, 240 ft. from runway, 100 ft. right of centerline
RWY 09 +50' TREE AT 30', 80' LEFT OF CENTERLINE
50 ft. tree, 200 ft. from runway, 100 ft. right of centerline
+13 FT ROAD AT 0 FT 110 FT R OF CNTRLN.

Airport Ownership and Management from official FAA records

Ownership: Publicly-owned
Owner: CITY OF OROFINO
PO BOX 312
OROFINO, ID 83544
Phone 208-476-4725
Manager: RICK LAAM
AIRPORT RD. NO 1
OROFINO, ID 83544
Phone 208-476-4725

Airport Operational Statistics

Aircraft based on the field: 9
Single engine airplanes: 9
    
Aircraft operations: avg 79/week *
73% transient general aviation
27% local general aviation
* for 12-month period ending 30 September 2018

Additional Remarks

HIGH TERRAIN IN ALL QUADS AROUND ARPT.
TWO 1968 FT MSL (250 FT AGL) RADIO TWRS LOCATED APPROXIMATELY 1 MILE E OF RY 27 300 FT LEFT.
BE ALERT DURING NIGHT OPS DUE TO TERRAIN.
FOR CD CTC SEATTLE ARTCC AT 253-351-3694.
FUEL AVBL 24/7 WITH CREDIT CARD.

Instrument Procedures

There are no published instrument procedures at S68.

Some nearby airports with instrument procedures:

KLWS - Lewiston-Nez Perce County Airport (31 nm W)
KGIC - Idaho County Airport (34 nm S)
KPUW - Pullman/Moscow Regional Airport (38 nm NW)
KCOE - Coeur d'Alene Airport - Pappy Boyington Field (80 nm N)
KSFF - Felts Field Airport (83 nm NW)
 
Loc | Ops | Rwys | IFR | FBO | Links
Com | Nav | Svcs | Stats | Notes
Area around S68 (Orofino Municipal Airport)
 
Road maps at: MapQuest Bing Google
 
Aerial photo
WARNING: Photo may not be current or correct
Aerial photo of S68 (Orofino Municipal Airport)
Photo by Lyle Hendricks
Photo taken 09-May-2010
looking northeast.

Do you have a better or more recent aerial photo of Orofino Municipal Airport that you would like to share? If so, please send us your photo.

 
Sectional chart

 
Airport distance calculator
Flying to Orofino Municipal Airport? Find the distance to fly.

From to S68

Sunrise and sunset
Times for 07-May-2021
 Local
(UTC-7)
 Zulu
(UTC)
Morning civil twilight04:4811:48
Sunrise05:2312:23
Sunset20:0103:01
Evening civil twilight20:3503:35

Current date and time
Zulu (UTC)  08-May-2021 04:29:30
Local (UTC-7)  07-May-2021 21:29:30
 
METAR
KLWS 
32nm W 
080356Z 20007KT 10SM CLR 09/M02 A3014 RMK AO2 SLP208 T00941022
KGIC 
34nm S 
080415Z AUTO 27015G20KT 10SM SCT041 BKN055 OVC065 05/M01 A3015 RMK AO1
KP69 
35nm SE 
080352Z AUTO 00000KT 07/07 A3017 RMK AO1 SLP221 T00670067
KPUW 
38nm NW 
080353Z AUTO 23008KT 10SM FEW070 BKN085 06/M01 A3013 RMK AO2 SLP212 T00611006
TAF
KLWS 
32nm W 
072226Z 0722/0818 26011G15KT P6SM FEW050 BKN080 FM080400 24008KT P6SM SCT070
KPUW 
38nm NW 
071737Z 0718/0818 25016G25KT P6SM SCT050 BKN100 FM080300 25009KT P6SM SCT035 BKN100 FM080600 25010KT P6SM FEW070 FM081500 25013G22KT P6SM FEW060
NOTAMs
Click for the latest NOTAMs
NOTAMs are issued by the DoD/FAA and will open in a separate window not controlled by AirNav.

 

 
 

FBO, Fuel Providers, and Aircraft Ground Support

  
 Business Name 
 
 Contact 
 
 Services / Description 
 
Fuel Prices
 
Comments
  
City of Orofino 208-476-4725
no information available

If you are affiliated with City of Orofino and would like to show here your services, contact info, web link, logo, and more, click here
100LL
FS $4.75 
 Updated 29-Apr-2021
 
   1 read write
FS=Full service
Update Fuel Prices
 

Would you like to see your business listed on this page?

 If your business provides an interesting product or service to pilots, flight crews, aircraft, or users of the Orofino Municipal Airport, you should consider listing it here.  To start the listing process, click on the button below
 
Add a business
 

Other Pages about Orofino Municipal Airport

Update a link
 
Copyright © AirNav, LLC. All rights reserved. Privacy Policy  Contact